• In Netherlands
  • List of Countries
  • For 7 days
  • Water Temperature
  • Satellite Maps
  • Weather Map
  • Weather Widgets
  • user-avatar
    Login

    Hourly Weather Natitingou

    Today, 15 December, Friday

    Time Temperature Precipitation Wind Pressure Humidity
    00:00 +27°C° 0 mm 1 mps 717 mmHg 20%
    01:00 +27°C° 0 mm 1 mps 717 mmHg 21%
    02:00 +26°C° 0 mm 1 mps 717 mmHg 21%
    03:00 +23°C° 0 mm 0 mps 717 mmHg 22%
    04:00 +23°C° 0 mm 0 mps 717 mmHg 23%
    05:00 +23°C° 0 mm 0 mps 717 mmHg 23%
    06:00 +22°C° 0 mm 0 mps 717 mmHg 24%
    07:00 +27°C° 0 mm 1 mps 718 mmHg 21%
    08:00 +30°C° 0 mm 1 mps 718 mmHg 18%
    09:00 +33°C° 0 mm 1 mps 719 mmHg 15%
    10:00 +35°C° 0 mm 1 mps 719 mmHg 13%
    11:00 +39°C° 0 mm 1 mps 718 mmHg 12%
    12:00 +41°C° 0 mm 1 mps 718 mmHg 10%
    13:00 +41°C° 0 mm 1 mps 717 mmHg 10%
    14:00 +41°C° 0 mm 1 mps 717 mmHg 10%
    15:00 +40°C° 0 mm 1 mps 716 mmHg 10%
    16:00 +37°C° 0 mm 1 mps 716 mmHg 11%
    17:00 +35°C° 0 mm 1 mps 716 mmHg 13%
    18:00 +32°C° 0 mm 1 mps 716 mmHg 14%
    19:00 +32°C° 0 mm 1 mps 716 mmHg 15%
    20:00 +31°C° 0 mm 1 mps 717 mmHg 16%
    21:00 +30°C° 0 mm 1 mps 717 mmHg 16%
    22:00 +29°C° 0 mm 1 mps 717 mmHg 17%
    23:00 +29°C° 0 mm 1 mps 717 mmHg 17%

    Tomorrow, 16 December, Saturday

    Time Temperature Precipitation Wind Pressure Humidity
    00:00 +28°C° 0 mm 1 mps 717 mmHg 18%
    01:00 +28°C° 0 mm 1 mps 716 mmHg 18%
    02:00 +27°C° 0 mm 1 mps 716 mmHg 19%
    03:00 +27°C° 0 mm 1 mps 716 mmHg 19%
    04:00 +26°C° 0 mm 1 mps 716 mmHg 20%
    05:00 +26°C° 0 mm 1 mps 716 mmHg 21%
    06:00 +25°C° 0 mm 1 mps 717 mmHg 21%
    07:00 +28°C° 0 mm 2 mps 717 mmHg 19%
    08:00 +30°C° 0 mm 2 mps 718 mmHg 16%
    09:00 +34°C° 0 mm 3 mps 719 mmHg 14%
    10:00 +36°C° 0 mm 3 mps 719 mmHg 13%
    11:00 +37°C° 0 mm 3 mps 718 mmHg 11%
    12:00 +39°C° 0 mm 3 mps 718 mmHg 10%
    13:00 +39°C° 0 mm 2 mps 717 mmHg 10%
    14:00 +39°C° 0 mm 2 mps 717 mmHg 10%
    15:00 +40°C° 0 mm 2 mps 716 mmHg 9%
    16:00 +38°C° 0 mm 2 mps 716 mmHg 11%
    17:00 +35°C° 0 mm 1 mps 716 mmHg 12%
    18:00 +33°C° 0 mm 1 mps 716 mmHg 13%
    19:00 +32°C° 0 mm 1 mps 716 mmHg 14%
    20:00 +31°C° 0 mm 1 mps 717 mmHg 14%
    21:00 +30°C° 0 mm 1 mps 717 mmHg 15%
    22:00 +29°C° 0 mm 1 mps 717 mmHg 16%
    23:00 +29°C° 0 mm 1 mps 717 mmHg 16%

    Day after tomorrow, 17 December, Sunday

    Time Temperature Precipitation Wind Pressure Humidity
    00:00 +28°C° 0 mm 1 mps 717 mmHg 17%
    01:00 +28°C° 0 mm 1 mps 716 mmHg 17%
    02:00 +27°C° 0 mm 1 mps 716 mmHg 17%
    03:00 +26°C° 0 mm 1 mps 716 mmHg 18%
    04:00 +26°C° 0 mm 1 mps 716 mmHg 18%
    05:00 +26°C° 0 mm 1 mps 716 mmHg 19%
    06:00 +25°C° 0 mm 1 mps 716 mmHg 19%
    07:00 +28°C° 0 mm 1 mps 717 mmHg 17%
    08:00 +30°C° 0 mm 2 mps 718 mmHg 15%
    09:00 +34°C° 0 mm 2 mps 719 mmHg 12%
    10:00 +35°C° 0 mm 2 mps 718 mmHg 11%
    11:00 +37°C° 0 mm 2 mps 718 mmHg 10%
    12:00 +39°C° 0 mm 2 mps 718 mmHg 9%
    13:00 +39°C° 0 mm 2 mps 717 mmHg 9%
    14:00 +40°C° 0 mm 2 mps 716 mmHg 9%
    15:00 +40°C° 0 mm 1 mps 715 mmHg 9%
    16:00 +37°C° 0 mm 1 mps 715 mmHg 10%
    17:00 +35°C° 0 mm 1 mps 715 mmHg 11%
    18:00 +33°C° 0 mm 1 mps 715 mmHg 12%
    19:00 +32°C° 0 mm 1 mps 716 mmHg 13%
    20:00 +31°C° 0 mm 1 mps 716 mmHg 14%
    21:00 +30°C° 0 mm 1 mps 717 mmHg 14%
    22:00 +29°C° 0 mm 1 mps 717 mmHg 15%
    23:00 +29°C° 0 mm 1 mps 717 mmHg 15%

    18 December, Monday

    Time Temperature Precipitation Wind Pressure Humidity
    00:00 +28°C° 0 mm 1 mps 716 mmHg 16%
    01:00 +28°C° 0 mm 1 mps 716 mmHg 16%
    02:00 +27°C° 0 mm 1 mps 716 mmHg 17%
    03:00 +26°C° 0 mm 1 mps 715 mmHg 17%
    04:00 +26°C° 0 mm 1 mps 716 mmHg 17%
    05:00 +25°C° 0 mm 1 mps 716 mmHg 17%
    06:00 +25°C° 0 mm 1 mps 716 mmHg 17%
    07:00 +27°C° 0 mm 2 mps 717 mmHg 16%
    08:00 +30°C° 0 mm 2 mps 717 mmHg 15%
    09:00 +34°C° 0 mm 2 mps 718 mmHg 14%
    10:00 +35°C° 0 mm 1 mps 718 mmHg 13%
    11:00 +37°C° 0 mm 1 mps 717 mmHg 11%
    12:00 +41°C° 0 mm 1 mps 717 mmHg 10%
    13:00 +38°C° 0 mm 0 mps 716 mmHg 10%
    14:00 +38°C° 0 mm 0 mps 716 mmHg 9%
    15:00 +38°C° 0 mm 0 mps 715 mmHg 9%
    16:00 +36°C° 0 mm 0 mps 715 mmHg 10%
    17:00 +33°C° 0 mm 0 mps 715 mmHg 12%
    18:00 +31°C° 0 mm 0 mps 715 mmHg 13%
    19:00 +32°C° 0 mm 1 mps 715 mmHg 13%
    20:00 +31°C° 0 mm 1 mps 715 mmHg 14%
    21:00 +30°C° 0 mm 1 mps 716 mmHg 14%
    22:00 +30°C° 0 mm 1 mps 716 mmHg 14%
    23:00 +29°C° 0 mm 1 mps 716 mmHg 14%

    19 December, Tuesday

    Time Temperature Precipitation Wind Pressure Humidity
    00:00 +28°C° 0 mm 1 mps 716 mmHg 14%
    01:00 +28°C° 0 mm 1 mps 716 mmHg 15%
    02:00 +27°C° 0 mm 1 mps 715 mmHg 15%
    03:00 +26°C° 0 mm 1 mps 715 mmHg 16%
    04:00 +26°C° 0 mm 1 mps 715 mmHg 19%
    05:00 +26°C° 0 mm 1 mps 716 mmHg 22%
    06:00 +25°C° 0 mm 1 mps 716 mmHg 25%
    07:00 +27°C° 0 mm 1 mps 717 mmHg 31%
    08:00 +29°C° 0 mm 2 mps 717 mmHg 37%
    09:00 +31°C° 0 mm 2 mps 718 mmHg 43%
    10:00 +35°C° 0 mm 2 mps 718 mmHg 36%
    11:00 +36°C° 0 mm 1 mps 718 mmHg 28%
    12:00 +40°C° 0 mm 1 mps 717 mmHg 21%
    13:00 +40°C° 0 mm 1 mps 716 mmHg 20%
    14:00 +40°C° 0 mm 1 mps 716 mmHg 18%
    15:00 +40°C° 0 mm 1 mps 715 mmHg 17%
    16:00 +37°C° 0 mm 1 mps 715 mmHg 18%
    17:00 +35°C° 0 mm 1 mps 715 mmHg 20%
    18:00 +33°C° 0 mm 1 mps 715 mmHg 21%
    19:00 +33°C° 0 mm 1 mps 715 mmHg 21%
    20:00 +32°C° 0 mm 1 mps 716 mmHg 21%
    21:00 +31°C° 0 mm 1 mps 716 mmHg 21%
    22:00 +31°C° 0 mm 1 mps 716 mmHg 19%
    23:00 +30°C° 0 mm 1 mps 716 mmHg 18%

    20 December, Wednesday

    Time Temperature Precipitation Wind Pressure Humidity
    00:00 +30°C° 0 mm 1 mps 716 mmHg 17%
    01:00 +29°C° 0 mm 1 mps 715 mmHg 17%
    02:00 +28°C° 0 mm 1 mps 715 mmHg 17%
    03:00 +26°C° 0 mm 0 mps 715 mmHg 17%
    04:00 +27°C° 0 mm 1 mps 715 mmHg 19%
    05:00 +26°C° 0 mm 1 mps 715 mmHg 21%
    06:00 +26°C° 0 mm 1 mps 716 mmHg 24%
    07:00 +28°C° 0 mm 1 mps 716 mmHg 29%
    08:00 +30°C° 0 mm 2 mps 717 mmHg 34%
    09:00 +32°C° 0 mm 2 mps 718 mmHg 39%
    10:00 +36°C° 0 mm 2 mps 717 mmHg 32%
    11:00 +37°C° 0 mm 1 mps 717 mmHg 25%
    12:00 +38°C° 0 mm 0 mps 717 mmHg 18%
    13:00 +38°C° 0 mm 0 mps 716 mmHg 17%
    14:00 +38°C° 0 mm 0 mps 716 mmHg 16%
    15:00 +38°C° 0 mm 0 mps 715 mmHg 15%
    16:00 +39°C° 0 mm 1 mps 715 mmHg 16%
    17:00 +36°C° 0 mm 1 mps 715 mmHg 18%
    18:00 +34°C° 0 mm 1 mps 715 mmHg 19%
    19:00 +33°C° 0 mm 1 mps 716 mmHg 19%
    20:00 +32°C° 0 mm 1 mps 716 mmHg 19%
    21:00 +31°C° 0 mm 1 mps 716 mmHg 19%
    22:00 +31°C° 0 mm 1 mps 716 mmHg 18%
    23:00 +30°C° 0 mm 1 mps 716 mmHg 17%
    Show more